GW5679 Weather Reports


Display with metric or nautical units.
time (UTC)temp
F
wind
direction
speed
MPH
gust
MPH
rain 1hr
in
rain 24hr
in
rain mn
in
humidity
%
barometer
mb
20260903013811 88 156 7.0 14.0 0.00 0.00 0.00 68 1011.8
20260903013309 88 153 7.0 10.0 0.00 0.00 0.00 67 1011.9
20260903012809 88 163 5.0 7.0 0.00 0.00 0.00 66 1011.6
20260903012306 88 147 8.0 13.0 0.00 0.00 0.00 66 1011.7
20260903011803 88 181 10.0 15.0 0.00 0.00 0.00 65 1011.5
20260903011302 88 156 8.0 14.0 0.00 0.00 0.00 65 1011.3
20260903010757 89 206 13.0 17.0 0.00 0.00 0.00 64 1011.4
20260903010253 89 163 9.0 16.0 0.00 0.00 0.00 63 1011.2
20260903005752 89 99 9.0 15.0 0.00 0.00 0.00 61 1011.1
20260903005246 89 136 4.0 11.0 0.00 0.00 0.00 57 1011.0
20260903004742 90 165 8.0 18.0 0.00 0.00 0.00 57 1011.1
20260903004237 90 173 12.0 15.0 0.00 0.00 0.00 55 1011.2
20260903003733 90 166 13.0 16.0 0.00 0.00 0.00 54 1011.0
20260903003228 90 148 10.0 14.0 0.00 0.00 0.00 56 1010.9
20260903002722 90 159 8.0 15.0 0.00 0.00 0.00 56 1010.8
20260903002217 91 149 9.0 14.0 0.00 0.00 0.00 56 1010.8
20260903001713 91 126 9.0 13.0 0.00 0.00 0.00 55 1010.8
20260903001213 91 160 8.0 15.0 0.00 0.00 0.00 56 1010.5
20260903000708 91 173 6.0 14.0 0.00 0.00 0.00 56 1010.4
20260903000207 92 158 6.0 10.0 0.00 0.00 0.00 56 1010.6
20260902235706 92 139 9.0 14.0 0.00 0.00 0.00 55 1010.4
20260902235201 92 191 12.0 16.0 0.00 0.00 0.00 54 1010.3
20260902234701 93 185 11.0 17.0 0.00 0.00 0.00 53 1010.2
20260902234159 93 158 8.0 11.0 0.00 0.00 0.00 53 1010.1
20260902233654 93 125 4.0 10.0 0.00 0.00 0.00 54 1010.2
20260902233154 93 144 11.0 14.0 0.00 0.00 0.00 54 1010.2
20260902232653 93 154 9.0 13.0 0.00 0.00 0.00 54 1010.4
20260902232152 93 221 14.0 18.0 0.00 0.00 0.00 55 1010.3
20260902231647 94 184 10.0 13.0 0.00 0.00 0.00 54 1010.3
20260902231142 94 149 8.0 10.0 0.00 0.00 0.00 54 1010.1
20260902230637 94 205 10.0 15.0 0.00 0.00 0.00 54 1010.3
20260902230136 94 178 7.0 13.0 0.00 0.00 0.00 54 1010.3
20260902225631 94 193 9.0 15.0 0.00 0.00 0.00 53 1010.4
20260902225130 95 171 10.0 14.0 0.00 0.00 0.00 53 1010.2
20260902224629 95 150 8.0 13.0 0.00 0.00 0.00 54 1010.4
20260902224125 95 175 7.0 13.0 0.00 0.00 0.00 53 1010.4
20260902223621 95 140 6.0 14.0 0.00 0.00 0.00 54 1010.4
20260902223121 95 166 11.0 16.0 0.00 0.00 0.00 53 1010.4
20260902222620 95 132 7.0 8.0 0.00 0.00 0.00 53 1010.3
20260902222119 95 156 6.0 10.0 0.00 0.00 0.00 52 1010.3
20260902221619 95 135 7.0 13.0 0.00 0.00 0.00 52 1010.3
20260902221113 96 161 11.0 13.0 0.00 0.00 0.00 51 1010.5
20260902220609 95 129 6.0 13.0 0.00 0.00 0.00 52 1010.3
20260902215600 95 126 9.0 13.0 0.00 0.00 0.00 51 1010.4
20260902215055 95 174 8.0 10.0 0.00 0.00 0.00 51 1010.3
20260902214549 95 156 12.0 15.0 0.00 0.00 0.00 51 1010.4
20260902214048 95 115 9.0 13.0 0.00 0.00 0.00 51 1010.3
20260902213544 95 171 10.0 11.0 0.00 0.00 0.00 52 1010.5
20260902213043 95 152 2.0 8.0 0.00 0.00 0.00 52 1010.4
20260902212540 95 191 3.0 10.0 0.00 0.00 0.00 52 1010.7
20260902212036 96 207 6.0 14.0 0.00 0.00 0.00 51 1010.5
20260902211532 96 182 5.0 8.0 0.00 0.00 0.00 51 1010.7
20260902211026 96 164 6.0 13.0 0.00 0.00 0.00 51 1010.7
20260902210520 96 211 6.0 8.0 0.00 0.00 0.00 51 1010.8
20260902210019 97 141 6.0 11.0 0.00 0.00 0.00 51 1010.6
20260902205514 96 189 5.0 10.0 0.00 0.00 0.00 51 1010.8
20260902205010 96 215 6.0 10.0 0.00 0.00 0.00 51 1010.9
20260902204509 96 166 6.0 10.0 0.00 0.00 0.00 52 1010.8
20260902204005 96 173 5.0 13.0 0.00 0.00 0.00 52 1010.8
20260902203500 96 172 7.0 13.0 0.00 0.00 0.00 51 1011.0
20260902202958 96 235 6.0 8.0 0.00 0.00 0.00 50 1011.1
20260902202454 97 195 8.0 10.0 0.00 0.00 0.00 49 1011.1
20260902201951 97 221 6.0 8.0 0.00 0.00 0.00 50 1010.9
20260902201446 97 142 7.0 11.0 0.00 0.00 0.00 49 1011.1
20260902200945 96 232 2.0 8.0 0.00 0.00 0.00 51 1011.1
20260902200441 96 216 4.0 7.0 0.00 0.00 0.00 51 1011.2
20260902195937 95 147 8.0 11.0 0.00 0.00 0.00 52 1011.3
20260902195432 96 186 11.0 13.0 0.00 0.00 0.00 51 1011.4
20260902194931 96 217 4.0 9.0 0.00 0.00 0.00 51 1011.5
20260902194426 96 182 8.0 10.0 0.00 0.00 0.00 51 1011.6
20260902193921 97 188 5.0 8.0 0.00 0.00 0.00 49 1011.7
20260902193417 98 185 5.0 10.0 0.00 0.00 0.00 48 1011.8
20260902192915 98 232 5.0 8.0 0.00 0.00 0.00 49 1011.8
20260902192415 97 215 2.0 6.0 0.00 0.00 0.00 49 1011.8
20260902191913 96 201 2.0 4.0 0.00 0.00 0.00 51 1011.8
20260902191409 96 237 4.0 9.0 0.00 0.00 0.00 51 1012.1
20260902190904 95 164 6.0 9.0 0.00 0.00 0.00 51 1011.9
20260902190359 96 260 5.0 9.0 0.00 0.00 0.00 51 1011.8
20260902185855 95 202 2.0 3.0 0.00 0.00 0.00 52 1012.2
20260902185350 95 245 6.0 9.0 0.00 0.00 0.00 52 1012.2
20260902184845 96 223 6.0 9.0 0.00 0.00 0.00 50 1012.3
20260902184341 96 244 4.0 6.0 0.00 0.00 0.00 51 1012.3
20260902183836 97 227 5.0 10.0 0.00 0.00 0.00 51 1012.4
20260902183332 97 228 6.0 9.0 0.00 0.00 0.00 50 1012.6
20260902182828 96 211 5.0 9.0 0.00 0.00 0.00 53 1012.7
20260902182324 95 232 3.0 8.0 0.00 0.00 0.00 54 1012.8
20260902181820 96 198 4.0 8.0 0.00 0.00 0.00 54 1012.7
20260902181316 95 299 3.0 7.0 0.00 0.00 0.00 54 1013.0
20260902180810 94 238 5.0 9.0 0.00 0.00 0.00 56 1013.2
20260902180306 94 210 3.0 9.0 0.00 0.00 0.00 56 1012.9
20260902175801 93 177 4.0 4.0 0.00 0.00 0.00 56 1013.3
20260902175256 94 239 6.0 11.0 0.00 0.00 0.00 56 1013.3
20260902174757 94 301 6.0 11.0 0.00 0.00 0.00 56 1013.3
20260902174253 93 209 3.0 7.0 0.00 0.00 0.00 57 1013.4
20260902173748 94 187 4.0 10.0 0.00 0.00 0.00 57 1013.5
20260902173243 93 201 7.0 11.0 0.00 0.00 0.00 58 1013.6
20260902172738 92 236 6.0 8.0 0.00 0.00 0.00 61 1013.7
20260902172237 92 189 5.0 10.0 0.00 0.00 0.00 62 1013.7
20260902171732 91 280 5.0 8.0 0.00 0.00 0.00 62 1014.0
20260902171227 91 254 7.0 8.0 0.00 0.00 0.00 63 1014.1
20260902170724 91 213 4.0 9.0 0.00 0.00 0.00 64 1014.0
20260902170220 90 205 7.0 9.0 0.00 0.00 0.00 64 1014.1
20260902165720 90 221 6.0 9.0 0.00 0.00 0.00 66 1014.2
20260902165214 90 240 6.0 11.0 0.00 0.00 0.00 64 1014.3
20260902164709 90 281 4.0 10.0 0.00 0.00 0.00 66 1014.2
20260902164209 90 249 4.0 11.0 0.00 0.00 0.00 68 1014.2
20260902163703 90 228 5.0 8.0 0.00 0.00 0.00 67 1014.4
20260902163203 90 225 6.0 9.0 0.00 0.00 0.00 67 1014.4
20260902162702 89 259 6.0 10.0 0.00 0.00 0.00 68 1014.4
20260902162156 89 241 6.0 15.0 0.00 0.00 0.00 69 1014.4
20260902161652 89 218 5.0 11.0 0.00 0.00 0.00 71 1014.4
20260902161147 89 218 6.0 14.0 0.00 0.00 0.00 70 1014.5
20260902160644 89 224 8.0 9.0 0.00 0.00 0.00 71 1014.5
20260902160138 88 186 1.0 8.0 0.00 0.00 0.00 73 1014.5
20260902155637 87 252 5.0 10.0 0.00 0.00 0.00 74 1014.4
20260902155135 87 230 5.0 7.0 0.00 0.00 0.00 76 1014.4
20260902154631 86 225 5.0 13.0 0.00 0.00 0.00 76 1014.4
20260902154126 86 219 7.0 11.0 0.00 0.00 0.00 77 1014.5
20260902153625 86 209 7.0 13.0 0.00 0.00 0.00 77 1014.3
20260902153120 86 244 4.0 11.0 0.00 0.00 0.00 77 1014.3
20260902152616 86 254 6.0 10.0 0.00 0.00 0.00 78 1014.4
20260902152112 86 225 4.0 10.0 0.00 0.00 0.00 78 1014.4
20260902151607 86 240 6.0 11.0 0.00 0.00 0.00 79 1014.3
20260902151107 85 248 4.0 6.0 0.00 0.00 0.00 80 1014.2
20260902150602 85 198 4.0 14.0 0.00 0.00 0.00 80 1014.1
20260902150058 85 210 4.0 6.0 0.00 0.00 0.00 81 1014.2
20260902145557 85 181 3.0 10.0 0.00 0.00 0.00 81 1014.1
20260902145057 85 260 8.0 11.0 0.00 0.00 0.00 81 1014.1
20260902144555 84 185 5.0 7.0 0.00 0.00 0.00 81 1014.0
20260902144054 84 239 5.0 11.0 0.00 0.00 0.00 82 1014.1
20260902143550 84 263 2.0 7.0 0.00 0.00 0.00 82 1014.1
20260902143045 84 223 4.0 9.0 0.00 0.00 0.00 83 1014.0
20260902142543 84 249 5.0 9.0 0.00 0.00 0.00 83 1014.0
20260902142036 84 263 4.0 4.0 0.00 0.00 0.00 83 1014.1
20260902141536 84 210 3.0 3.0 0.00 0.00 0.00 84 1014.1
20260902141032 83 221 4.0 7.0 0.00 0.00 0.00 84 1014.0
20260902140532 83 196 5.0 8.0 0.00 0.00 0.00 85 1014.0
20260902140027 83 236 3.0 7.0 0.00 0.00 0.00 85 1013.9
20260902135526 83 217 3.0 8.0 0.00 0.00 0.00 85 1013.8
20260902135021 83 223 6.0 8.0 0.00 0.00 0.00 85 1014.0
20260902134517 83 232 3.0 6.0 0.00 0.00 0.00 86 1014.0
20260902134011 83 214 3.0 6.0 0.00 0.00 0.00 86 1014.0
20260902133506 83 173 2.0 7.0 0.00 0.00 0.00 86 1014.1
20260902133001 83 217 4.0 7.0 0.00 0.00 0.00 86 1014.0
20260902132456 82 250 6.0 8.0 0.00 0.00 0.00 86 1014.1
20260902131956 82 226 5.0 7.0 0.00 0.00 0.00 86 1013.8
20260902131453 82 230 3.0 7.0 0.00 0.00 0.00 86 1013.9
20260902130952 82 209 3.0 6.0 0.00 0.00 0.00 87 1013.7
20260902130448 82 245 3.0 6.0 0.00 0.00 0.00 87 1013.7
20260902125943 82 200 2.0 4.0 0.00 0.00 0.00 87 1013.6
20260902125439 82 239 3.0 9.0 0.00 0.00 0.00 87 1013.7
20260902124935 82 211 2.0 4.0 0.00 0.00 0.00 87 1013.7
20260902124431 82 174 3.0 6.0 0.00 0.00 0.00 87 1013.3
20260902123925 82 217 2.0 4.0 0.00 0.00 0.00 87 1013.4
20260902123422 82 225 4.0 6.0 0.00 0.00 0.00 87 1013.3
20260902122920 82 234 7.0 9.0 0.00 0.00 0.00 88 1013.2
20260902122416 82 164 1.0 6.0 0.00 0.00 0.00 88 1013.0
20260902121911 82 184 5.0 8.0 0.00 0.00 0.00 88 1012.7
20260902121406 81 217 4.0 7.0 0.00 0.00 0.00 88 1012.6
20260902120901 81 233 4.0 4.0 0.00 0.00 0.00 88 1012.4
20260902120358 81 199 3.0 7.0 0.00 0.00 0.00 88 1012.6
20260902115857 81 211 2.0 8.0 0.00 0.00 0.00 88 1012.6
20260902115353 81 164 3.0 7.0 0.00 0.00 0.00 88 1012.8
20260902114850 81 211 4.0 4.0 0.00 0.00 0.00 88 1012.6
20260902114345 81 221 3.0 7.0 0.00 0.00 0.00 88 1012.7
20260902113840 81 217 4.0 8.0 0.00 0.00 0.00 88 1012.5
20260902113336 81 213 4.0 8.0 0.00 0.00 0.00 88 1012.7
20260902112835 81 188 3.0 6.0 0.00 0.00 0.00 88 1012.6
20260902112332 81 197 3.0 9.0 0.00 0.00 0.00 88 1012.6
20260902111827 81 188 2.0 6.0 0.00 0.00 0.00 88 1012.7
20260902111324 81 218 4.0 6.0 0.00 0.00 0.00 88 1012.7
20260902110819 81 180 2.0 6.0 0.00 0.00 0.00 88 1012.5
20260902110314 81 210 2.0 4.0 0.00 0.00 0.00 88 1012.6
20260902105809 81 225 4.0 6.0 0.00 0.00 0.00 88 1012.7
20260902105306 81 193 2.0 7.0 0.00 0.00 0.00 88 1012.7
20260902104759 81 235 4.0 7.0 0.00 0.00 0.00 88 1012.8
20260902104255 81 202 4.0 6.0 0.00 0.00 0.00 88 1012.7
20260902103755 81 233 3.0 7.0 0.00 0.00 0.00 88 1012.8
20260902103254 81 170 1.0 4.0 0.00 0.00 0.00 88 1012.7
20260902102749 81 273 3.0 4.0 0.00 0.00 0.00 88 1012.8
20260902102247 81 157 1.0 4.0 0.00 0.00 0.00 88 1012.5
20260902101742 81 200 3.0 4.0 0.00 0.00 0.00 87 1012.5
20260902101237 81 227 5.0 7.0 0.00 0.00 0.00 87 1012.3
20260902100736 81 219 3.0 6.0 0.00 0.00 0.00 87 1012.4
20260902100231 81 226 5.0 7.0 0.00 0.00 0.00 87 1012.6
20260902095726 81 236 5.0 6.0 0.00 0.00 0.00 87 1012.3
20260902095226 81 248 5.0 8.0 0.00 0.00 0.00 87 1012.5
20260902094720 81 251 4.0 6.0 0.00 0.00 0.00 87 1012.2
20260902094217 81 172 2.0 4.0 0.00 0.00 0.00 86 1012.4
20260902093716 81 253 4.0 6.0 0.00 0.00 0.00 86 1012.6
20260902093212 82 171 1.0 6.0 0.00 0.00 0.00 86 1012.4
20260902092711 82 157 3.0 4.0 0.00 0.00 0.00 86 1012.4
20260902092207 82 221 3.0 8.0 0.00 0.00 0.00 85 1012.5
20260902091700 82 222 4.0 4.0 0.00 0.00 0.00 85 1012.7
20260902091157 82 247 4.0 4.0 0.00 0.00 0.00 85 1012.4
20260902090653 82 183 1.0 2.0 0.00 0.00 0.00 84 1012.3
20260902090152 82 217 3.0 6.0 0.00 0.00 0.00 84 1012.6
20260902085652 82 230 4.0 7.0 0.00 0.00 0.00 84 1012.3
20260902085147 82 256 5.0 6.0 0.00 0.00 0.00 84 1012.4
20260902084643 82 202 3.0 6.0 0.00 0.00 0.00 84 1012.4
20260902084139 82 316 3.0 4.0 0.00 0.00 0.00 84 1012.3
20260902083634 82 232 2.0 4.0 0.00 0.00 0.00 84 1012.5
20260902083133 82 215 3.0 6.0 0.00 0.00 0.00 84 1012.3
20260902082629 82 234 3.0 7.0 0.00 0.00 0.00 84 1012.4
20260902082126 82 205 4.0 8.0 0.00 0.00 0.00 84 1012.5
20260902081622 82 189 2.0 4.0 0.00 0.00 0.00 83 1012.4
20260902081122 82 226 0.0 4.0 0.00 0.00 0.00 83 1012.3
20260902080617 82 187 4.0 8.0 0.00 0.00 0.00 83 1012.5
20260902080114 82 217 2.0 6.0 0.00 0.00 0.00 83 1012.4
20260902075613 82 234 3.0 4.0 0.00 0.00 0.00 83 1012.5
20260902075109 82 247 3.0 8.0 0.00 0.00 0.00 83 1012.5
20260902074604 82 171 2.0 4.0 0.00 0.00 0.00 83 1012.5
20260902074059 82 207 2.0 4.0 0.00 0.00 0.00 83 1012.4
20260902073554 82 218 3.0 14.0 0.00 0.00 0.00 83 1012.4
20260902073051 82 214 3.0 4.0 0.00 0.00 0.00 83 1012.5
20260902072547 82 207 4.0 7.0 0.00 0.00 0.00 83 1012.6
20260902072043 82 188 2.0 6.0 0.00 0.00 0.00 83 1012.5
20260902071542 83 155 2.0 6.0 0.00 0.00 0.00 82 1012.5
20260902071039 83 216 3.0 6.0 0.00 0.00 0.00 82 1012.6
20260902070534 83 185 2.0 3.0 0.00 0.00 0.00 82 1012.6
20260902070029 83 223 2.0 6.0 0.00 0.00 0.00 82 1012.4
20260902065523 83 225 5.0 9.0 0.00 0.00 0.00 82 1012.5
20260902065019 83 152 3.0 6.0 0.00 0.00 0.00 81 1012.4
20260902064514 83 234 3.0 7.0 0.00 0.00 0.00 81 1012.3
20260902064010 83 167 2.0 3.0 0.00 0.00 0.00 81 1012.4
20260902063510 83 216 4.0 8.0 0.00 0.00 0.00 81 1012.3
20260902063005 83 206 3.0 7.0 0.00 0.00 0.00 80 1012.4
20260902062503 84 211 3.0 8.0 0.00 0.00 0.00 80 1012.3
20260902061958 84 194 5.0 7.0 0.00 0.00 0.00 79 1012.5
20260902061453 84 203 6.0 10.0 0.00 0.00 0.00 79 1012.2
20260902060949 84 225 5.0 7.0 0.00 0.00 0.00 78 1012.2
20260902060445 84 226 6.0 11.0 0.00 0.00 0.00 76 1012.3
20260902055942 84 216 3.0 6.0 0.00 0.00 0.00 75 1012.3
20260902055437 84 215 5.0 9.0 0.00 0.00 0.00 73 1012.3
20260902054932 83 200 3.0 4.0 0.00 0.00 0.00 72 1012.3
20260902054427 83 205 3.0 7.0 0.00 0.00 0.00 71 1012.1
20260902053922 83 189 3.0 7.0 0.00 0.00 0.00 71 1012.2
20260902053418 83 204 3.0 6.0 0.00 0.00 0.00 71 1012.5
20260902052917 83 176 2.0 2.0 0.00 0.00 0.00 71 1012.4
20260902052412 83 203 2.0 3.0 0.00 0.00 0.00 71 1012.6
20260902051908 83 209 1.0 4.0 0.00 0.00 0.00 70 1012.5
20260902051408 83 227 1.0 3.0 0.00 0.00 0.00 70 1012.5
20260902050906 83 186 2.0 2.0 0.00 0.00 0.00 71 1012.5
20260902050401 83 202 2.0 3.0 0.00 0.00 0.00 70 1012.7
20260902045856 83 227 2.0 2.0 0.00 0.00 0.00 70 1012.5
20260902045352 83 213 1.0 3.0 0.00 0.00 0.00 70 1012.5
20260902044848 83 228 2.0 2.0 0.00 0.00 0.00 71 1012.5
20260902044343 83 178 1.0 2.0 0.00 0.00 0.00 71 1012.6
20260902043843 84 35 2.0 4.0 0.00 0.00 0.00 71 1012.6
20260902043339 84 61 4.0 4.0 0.00 0.00 0.00 70 1012.6
20260902042838 84 275 2.0 4.0 0.00 0.00 0.00 70 1012.5
20260902042338 84 186 1.0 2.0 0.00 0.00 0.00 71 1012.5
20260902041833 84 298 3.0 4.0 0.00 0.00 0.00 71 1012.7
20260902041333 84 274 2.0 3.0 0.00 0.00 0.00 71 1012.5
20260902040832 84 221 2.0 2.0 0.00 0.00 0.00 71 1012.6
20260902040328 83 182 2.0 3.0 0.00 0.00 0.00 72 1012.6
20260902035826 83 214 2.0 3.0 0.00 0.00 0.00 72 1012.6
20260902035322 83 212 0.0 2.0 0.00 0.00 0.00 72 1012.8
20260902034821 83 185 1.0 3.0 0.00 0.00 0.00 72 1012.8
20260902034316 83 204 1.0 3.0 0.00 0.00 0.00 72 1012.9
20260902033814 84 253 2.0 2.0 0.00 0.00 0.00 72 1012.9
20260902033310 83 156 1.0 2.0 0.00 0.00 0.00 72 1012.9
20260902032808 83 161 1.0 2.0 0.00 0.00 0.00 72 1012.9
20260902032306 84 161 1.0 2.0 0.00 0.00 0.00 72 1013.0
20260902031803 84 208 2.0 4.0 0.00 0.00 0.00 72 1012.8
20260902031259 84 211 1.0 2.0 0.00 0.00 0.00 72 1012.7
20260902030754 84 279 2.0 3.0 0.00 0.00 0.00 72 1012.7
20260902030249 84 275 3.0 3.0 0.00 0.00 0.00 72 1012.4
20260902025748 84 221 2.0 3.0 0.00 0.00 0.00 72 1012.4
20260902025243 83 120 2.0 3.0 0.00 0.00 0.00 72 1012.3
20260902024738 83 243 1.0 1.0 0.00 0.00 0.00 72 1012.2
20260902024234 83 173 0.0 1.0 0.00 0.00 0.00 72 1012.3
20260902023730 83 146 1.0 2.0 0.00 0.00 0.00 72 1012.1
20260902023224 83 155 1.0 2.0 0.00 0.00 0.00 72 1012.1
20260902022724 83 104 2.0 3.0 0.00 0.00 0.00 72 1012.1
20260902022214 83 329 3.0 3.0 0.00 0.00 0.00 72 1012.0
20260902021710 83 209 2.0 2.0 0.00 0.00 0.00 72 1012.0
20260902021209 83 162 1.0 3.0 0.00 0.00 0.00 73 1012.1
20260902020705 83 126 2.0 3.0 0.00 0.00 0.00 73 1011.9
20260902020201 83 338 2.0 2.0 0.00 0.00 0.00 73 1011.9
20260902015656 83 140 1.0 1.0 0.00 0.00 0.00 72 1011.6
20260902015153 83 160 1.0 3.0 0.00 0.00 0.00 72 1011.3
20260902014648 83 310 2.0 3.0 0.00 0.00 0.00 72 1011.6
20260902014144 83 327 4.0 6.0 0.00 0.00 0.00 72 1011.4